Terug naar catalogus

FENGYUN 1C DEB

ActiefSSO
NORAD 30381·DEBRIS·🇨🇳 China

Gelanceerd May 10, 1999 vanaf Taiyuan Satellite Launch Center

Loading…

Volgende Passages (komende 24 uur)

TLE

VersSource: Space-Track

Epoch: Sep 12, 2026, 00:50 UTC

1 30381U 99025ACU 26255.03507021  .00001121  00000-0  60599-3 0  9995
2 30381  98.7920 290.6284 0054243  19.6068 340.7174 14.13886002960274

Volg FENGYUN 1C DEB in realtime met AllMySat

Download on the App Store